Flag for Kenya Weather past 2 weeks in Nairobi, Kenya

Now
73 °F

Passing clouds.


Feels Like: 77 °F
Forecast: 52 / 76 °F
Wind: 8 mph from East

Location: Nairobi / Wilson

Current Time: Sep 5, 2015 at 8:17:34 PM

Latest Report: Sep 5, 2015 at 7:00 PM


Visibility: N/A

Pressure: 30.15 "Hg (24.84 "Hg at 1680m altitude)

Humidity: 47%

Dew point: 52 °F

Location of NairobiLocation

Historic Weather in Nairobi — Graph

°F

Nairobi temperature yesterday

Maximum temperature yesterday: 73 °F (at 4:00 PM)
Minimum temperature yesterday: 61 °F (at 6:00 AM)
Average temperature yesterday: 67 °F

Past Weeks' High & Low Weather Summary

 TemperatureHumidityPressure
High79 °F (Aug 28, 3:00 PM)100% (Aug 23, 8:00 AM)30.30 "Hg (Aug 23, 8:00 AM)
Low50 °F (Aug 24, 6:00 AM)30% (Aug 28, 3:00 PM)30.09 "Hg (Aug 28, 5:00 PM)
Average68 °F61%30.19 "Hg
* Reported Aug 21 7:00 PM — Sep 5 7:00 PM, Nairobi, Weather by CustomWeather, © 2015

Note: Actual official high and low records may vary slightly from our data, if they occured in-between our weather recording intervals... More about our weather records

Advertising

Nairobi weather history for previous 24 hours

 ConditionsComfort  
Time TempWeatherWind HumidityBarometerVisibility
7:00 PM
Sat, Sep 5
73 °FPassing clouds.8 mph47%30.15 "HgN/A
6:00 PM75 °FPartly sunny.12 mph44%30.12 "HgN/A
5:00 PM77 °FPartly sunny.10 mph42%30.12 "HgN/A
4:00 PM77 °FPartly sunny.8 mph39%30.12 "HgN/A
3:00 PM77 °FPartly sunny.10 mph44%30.15 "HgN/A
2:00 PM73 °FPartly sunny.9 mph50%30.18 "HgN/A
1:00 PM72 °FPartly sunny.No wind53%30.24 "HgN/A
12:00 PM70 °FPartly sunny.No wind60%30.27 "HgN/A
11:00 AM66 °FPartly sunny.No wind68%30.27 "HgN/A
9:00 AM61 °FLow clouds.No wind83%30.30 "HgN/A
8:00 AM59 °FLow clouds.No wind88%30.27 "HgN/A
7:00 AM59 °FLow clouds.No wind88%30.24 "HgN/A
6:00 AM59 °FPassing clouds.No wind88%30.24 "HgN/A
11:00 PM
Fri, Sep 4
63 °FPassing clouds.5 mph77%30.24 "HgN/A
10:00 PM64 °FPassing clouds.No wind73%30.24 "HgN/A
8:00 PM66 °FPassing clouds.3 mph73%30.18 "HgN/A
Weather by CustomWeather, © 2015

See weather overviewHow to use our weather pages